Marysville, OH

8:20 PM EST on February 10, 2016 (GMT -0500)
Marysville

Weather History for KMRT - March, 2013

Change the Weather History Date:

Sunday, March 17, 2013

  Actual Average (WUND) Record (WUND)
Temperature  
Mean Temperature 32 °F -  
Max Temperature 34 °F - - (-1)
Min Temperature 29 °F - - (-1)
Degree Days  
Heating Degree Days 34    
Moisture  
Dew Point 25 °F    
Average Humidity 77    
Maximum Humidity 86    
Minimum Humidity 68    
Precipitation  
Precipitation 0.00 in - - ()
Sea Level Pressure  
Sea Level Pressure 30.10 in    
Wind  
Wind Speed 8 mph (NE)    
Max Wind Speed 12 mph    
Max Gust Speed 20 mph    
Visibility 10 miles    
Events      
Averages and records for this station are not official NWS values.
T = Trace of Precipitation, MM = Missing Value Source: NWS Daily Summary

Daily Weather History Graph

Daily Weather History Graph

Search for Another Location

Airport or City:

Trip Planner

Search our weather history database for the weather conditions in past years. The results will help you decide how hot, cold, wet, or windy it might be!

Date:

Astronomy

Mar. 17, 2013 Rise Set
Actual Time 7:41 AM EDT 7:42 PM EDT
Civil Twilight 7:14 AM EDT 8:09 PM EDT
Nautical Twilight 6:42 AM EDT 8:41 PM EDT
Astronomical Twilight 6:10 AM EDT 9:13 PM EDT
Moon 10:52 AM EDT (3/17) 12:50 AM EDT (3/17)
Length of Visible Light 12h 55m
Length of Day
12h 01m
Waxing Crescent, 31% of the Moon is Illuminated
Mar 17
Waxing Crescent
Mar 19
First Quarter
Mar 27
Full
Apr 3
Last Quarter
Apr 10
New

Hourly Weather History & Observations

Time (EDT) Temp. Windchill Dew Point Humidity Pressure Visibility Wind Dir Wind Speed Gust Speed Precip Events Conditions
12:14 AM 31.1 °F 24.5 °F 27.3 °F 86% 30.03 in 10.0 mi NNE 6.9 mph - N/A   Overcast
12:34 AM 31.1 °F 23.7 °F 27.0 °F 85% 30.03 in 10.0 mi North 8.1 mph - N/A   Overcast
12:53 AM 31.1 °F 25.4 °F 27.0 °F 85% 30.03 in 10.0 mi North 5.8 mph - N/A   Overcast
1:14 AM 31.1 °F 25.4 °F 27.3 °F 86% 30.03 in 7.0 mi NNE 5.8 mph - N/A   Overcast
1:34 AM 31.1 °F 24.5 °F 27.3 °F 86% 30.03 in 10.0 mi NE 6.9 mph - N/A   Overcast
1:53 AM 31.1 °F 25.4 °F 27.1 °F 85% 30.03 in 7.0 mi NNE 5.8 mph - N/A   Overcast
2:14 AM 31.1 °F - 27.1 °F 85% 30.04 in 10.0 mi Calm Calm - N/A   Overcast
2:34 AM 31.3 °F 27.9 °F 27.3 °F 85% 30.05 in 7.0 mi North 3.5 mph - N/A   Overcast
2:53 AM 31.5 °F 26.8 °F 27.5 °F 85% 30.05 in 7.0 mi North 4.6 mph - N/A   Overcast
3:14 AM 31.5 °F 26.8 °F 27.5 °F 85% 30.05 in 10.0 mi North 4.6 mph - N/A   Overcast
3:34 AM 31.6 °F 25.1 °F 27.3 °F 84% 30.05 in 10.0 mi North 6.9 mph - N/A   Overcast
3:53 AM 31.8 °F 27.3 °F 27.5 °F 84% 30.05 in 10.0 mi North 4.6 mph - N/A   Overcast
4:14 AM 31.6 °F 25.1 °F 27.5 °F 85% 30.04 in 7.0 mi NNE 6.9 mph - N/A   Overcast
4:34 AM 31.6 °F 24.4 °F 27.3 °F 84% 30.03 in 10.0 mi NNE 8.1 mph - N/A   Overcast
4:53 AM 31.6 °F 24.4 °F 27.3 °F 84% 30.03 in 10.0 mi NNE 8.1 mph - N/A   Overcast
5:14 AM 31.5 °F 24.9 °F 27.3 °F 85% 30.06 in 10.0 mi NNE 6.9 mph - N/A   Overcast
5:34 AM 31.6 °F 25.1 °F 27.3 °F 84% 30.05 in 10.0 mi NNE 6.9 mph - N/A   Overcast
5:53 AM 31.1 °F 21.9 °F 26.8 °F 84% 30.05 in 10.0 mi NNE 11.5 mph - N/A   Overcast
6:14 AM 30.9 °F 22.2 °F 25.9 °F 82% 30.06 in 10.0 mi NNE 10.4 mph 19.6 mph N/A   Overcast
6:34 AM 30.7 °F 22.6 °F 25.7 °F 82% 30.08 in 10.0 mi NE 9.2 mph - N/A   Overcast
6:53 AM 30.7 °F 22.0 °F 25.2 °F 80% 30.09 in 10.0 mi NNE 10.4 mph - N/A   Overcast
7:14 AM 30.7 °F 23.3 °F 24.8 °F 79% 30.10 in 10.0 mi NE 8.1 mph - N/A   Overcast
7:33 AM 30.7 °F 24.9 °F 24.3 °F 77% 30.11 in 10.0 mi ENE 5.8 mph - N/A   Overcast
7:54 AM 30.7 °F 27.3 °F 25.2 °F 80% 30.12 in 10.0 mi ENE 3.5 mph - N/A   Overcast
8:14 AM 30.9 °F 27.5 °F 24.4 °F 77% 30.13 in 10.0 mi East 3.5 mph - N/A   Overcast
8:33 AM 30.9 °F 27.5 °F 24.3 °F 76% 30.15 in 10.0 mi ENE 3.5 mph - N/A   Overcast
8:54 AM 31.1 °F 25.4 °F 24.1 °F 75% 30.15 in 10.0 mi NE 5.8 mph - N/A   Overcast
9:14 AM 31.1 °F 25.4 °F 23.7 °F 74% 30.16 in 10.0 mi NE 5.8 mph - N/A   Overcast
9:33 AM 30.2 °F 21.9 °F 23.9 °F 77% 30.17 in 10.0 mi NNE 9.2 mph - N/A   Overcast
9:54 AM 29.3 °F 20.2 °F 22.8 °F 77% 30.18 in 10.0 mi NNE 10.4 mph - N/A   Overcast
10:14 AM 29.5 °F 21.1 °F 22.3 °F 75% 30.17 in 10.0 mi NNE 9.2 mph - N/A   Overcast
10:33 AM 29.3 °F 20.8 °F 21.9 °F 74% 30.16 in 10.0 mi NNE 9.2 mph - N/A   Overcast
10:54 AM 29.7 °F 21.3 °F 22.3 °F 74% 30.16 in 10.0 mi NE 9.2 mph - N/A   Overcast
11:14 AM 29.3 °F 19.6 °F 21.4 °F 72% 30.17 in 10.0 mi NNE 11.5 mph - N/A   Overcast
11:33 AM 29.3 °F 20.8 °F 22.1 °F 75% 30.17 in 10.0 mi NE 9.2 mph - N/A   Overcast
11:54 AM 29.8 °F 22.2 °F 23.0 °F 76% 30.17 in 10.0 mi NE 8.1 mph - N/A   Overcast
12:14 PM 30.2 °F 21.3 °F 23.0 °F 75% 30.17 in 10.0 mi NE 10.4 mph - N/A   Overcast
12:33 PM 30.9 °F 23.5 °F 23.4 °F 74% 30.17 in 10.0 mi NE 8.1 mph - N/A   Overcast
12:54 PM 32.0 °F 23.6 °F 25.0 °F 75% 30.17 in 10.0 mi NE 10.4 mph - N/A   Overcast
1:14 PM 32.7 °F 25.0 °F 25.5 °F 75% 30.16 in 10.0 mi ENE 9.2 mph - N/A   Mostly Cloudy
1:33 PM 33.1 °F 25.5 °F 25.3 °F 73% 30.15 in 10.0 mi NE 9.2 mph - N/A   Mostly Cloudy
1:54 PM 32.9 °F 24.1 °F 25.3 °F 74% 30.15 in 10.0 mi NE 11.5 mph - N/A   Overcast
2:14 PM 32.9 °F 25.9 °F 25.0 °F 73% 30.15 in 10.0 mi NE 8.1 mph - N/A   Overcast
2:33 PM 33.6 °F 25.0 °F 25.9 °F 73% 30.15 in 10.0 mi ENE 11.5 mph - N/A   Overcast
2:54 PM 33.8 °F 25.8 °F 25.7 °F 72% 30.13 in 10.0 mi ENE 10.4 mph - N/A   Overcast
3:14 PM 34.0 °F 27.2 °F 26.1 °F 73% 30.13 in 10.0 mi ENE 8.1 mph - N/A   Overcast
3:33 PM 34.0 °F 26.6 °F 26.1 °F 73% 30.13 in 10.0 mi ENE 9.2 mph - N/A   Overcast
3:54 PM 33.8 °F 25.8 °F 25.7 °F 72% 30.13 in 10.0 mi East 10.4 mph - N/A   Overcast
4:14 PM 34.0 °F 26.0 °F 26.1 °F 73% 30.12 in 10.0 mi ENE 10.4 mph - N/A   Overcast
4:33 PM 34.0 °F 25.5 °F 25.5 °F 71% 30.12 in 10.0 mi ENE 11.5 mph - N/A   Overcast
4:54 PM 34.2 °F 26.8 °F 26.2 °F 73% 30.12 in 10.0 mi ENE 9.2 mph - N/A   Overcast
5:13 PM 34.2 °F 25.7 °F 25.9 °F 72% 30.12 in 10.0 mi East 11.5 mph - N/A   Overcast
5:34 PM 34.2 °F 26.2 °F 25.9 °F 72% 30.12 in 10.0 mi ENE 10.4 mph - N/A   Mostly Cloudy
5:54 PM 34.3 °F 26.5 °F 25.5 °F 70% 30.12 in 10.0 mi ENE 10.4 mph - N/A   Mostly Cloudy
6:13 PM 34.3 °F 26.5 °F 25.3 °F 70% 30.11 in 10.0 mi ENE 10.4 mph - N/A   Scattered Clouds
6:34 PM 34.3 °F 27.7 °F 25.0 °F 69% 30.10 in 10.0 mi East 8.1 mph - N/A   Scattered Clouds
6:54 PM 34.3 °F 27.7 °F 24.8 °F 68% 30.10 in 10.0 mi East 8.1 mph - N/A   Clear
7:13 PM 34.0 °F 27.2 °F 24.8 °F 69% 30.10 in 10.0 mi ENE 8.1 mph - N/A   Clear
7:34 PM 33.1 °F 25.5 °F 25.3 °F 73% 30.10 in 10.0 mi ENE 9.2 mph - N/A   Clear
7:54 PM 32.5 °F 26.2 °F 25.3 °F 75% 30.11 in 10.0 mi East 6.9 mph - N/A   Clear
8:13 PM 32.2 °F 25.8 °F 25.3 °F 76% 30.10 in 10.0 mi ENE 6.9 mph - N/A   Clear
8:34 PM 32.0 °F 24.8 °F 25.0 °F 75% 30.11 in 10.0 mi East 8.1 mph - N/A   Clear
8:54 PM 32.0 °F 24.8 °F 25.0 °F 75% 30.11 in 10.0 mi East 8.1 mph - N/A   Clear
9:13 PM 32.0 °F 24.8 °F 25.0 °F 75% 30.11 in 10.0 mi ENE 8.1 mph - N/A   Clear
9:34 PM 32.0 °F 24.2 °F 25.3 °F 76% 30.10 in 10.0 mi East 9.2 mph - N/A   Clear
9:54 PM 32.0 °F 24.2 °F 25.3 °F 76% 30.10 in 10.0 mi ENE 9.2 mph - N/A   Clear
10:14 PM 32.0 °F 23.0 °F 25.2 °F 76% 30.10 in 10.0 mi ENE 11.5 mph - N/A   Clear
10:33 PM 32.0 °F 23.0 °F 25.2 °F 76% 30.10 in 10.0 mi East 11.5 mph - N/A   Clear
10:54 PM 32.0 °F 24.2 °F 25.0 °F 75% 30.09 in 10.0 mi East 9.2 mph - N/A   Clear
11:14 PM 31.8 °F 23.9 °F 25.2 °F 76% 30.08 in 10.0 mi East 9.2 mph - N/A   Scattered Clouds
11:33 PM 31.8 °F 23.9 °F 25.2 °F 76% 30.07 in 10.0 mi East 9.2 mph - N/A   Scattered Clouds
11:54 PM 31.8 °F 23.9 °F 24.8 °F 75% 30.07 in 10.0 mi East 9.2 mph - N/A   Scattered Clouds